Miscellaneous Local Product
Issued by NWS North Platte, NE

Current Version | Previous Version | Text Only | Print | Product List | Glossary On
Versions: 1 2 3 4 5 6 7 8 9 10 11 12 13 14 15 16 17 18 19 20 21 22 23 24 25 26 27 28 29 30 31 32 33 34 35 36 37 38 39 40 41 42 43 44 45 46 47 48 49 50
000
AXUS43 KLBF 241110
MISLBF


WESTERN AND NORTH CENTRAL NEBRASKA HOURLY WEATHER ROUNDUP
NATIONAL WEATHER SERVICE NORTH PLATTE NE
600 AM CDT WED MAY 24 2017

NOTE: "FAIR" INDICATES FEW OR NO CLOUDS BELOW 12,000 FEET WITH NO
SIGNIFICANT WEATHER AND/OR OBSTRUCTIONS TO VISIBILITY.

NOTE: STATIONS NOT REPORTING VARIABLES SUCH AS SKY/WEATHER OR
PRESSURE ARE PROVIDED BY RAWS AND APRS NETWORKS AND ARE NOT UNDER
NATIONAL WEATHER SERVICE QUALITY CONTROL.

...OBSERVATIONS IN AND NEAR THE EASTERN PANHANDLE OF NEBRASKA...

CITY           SKY/WX    TMP DP  RH WIND       PRES   REMARKS
PINE RIDGE     CLEAR     38  35  89 S6        29.85F WCI  33
GORDON         FAIR      36  33  89 W8        29.86F WCI  30
CHADRON        CLEAR     42  36  79 VRB3      29.83F
ALLIANCE       CLEAR     32  30  92 SE6       29.86F WCI  26
SIDNEY         CLOUDY    30  29  96 SW7       29.89F WCI  23
CRESCENT LAKE    N/A     38  36  92 CALM        N/A
$$

...OBSERVATIONS IN NORTHERN NEBRASKA AND FAR SOUTHERN SOUTH DAKOTA...

CITY           SKY/WX    TMP DP  RH WIND       PRES   REMARKS
WINNER         FAIR      38  36  92 SW6       29.86F WCI  33
VALENTINE      CLEAR     31  28  89 W6        29.87F WCI  25
THEDFORD       CLOUDY    34  33  96 W6        29.87F WCI  29
AINSWORTH      CLEAR     36  36  99 W3        29.86F
O`NEILL        CLEAR     40  38  90 NW6       29.86F
ORD            CLEAR     39  36  89 NW6       29.86S WCI  35
BROKEN BOW     CLEAR     39  37  92 N6        29.86F WCI  35
VALENTINE NWR    N/A     36  34  94 CALM        N/A
HALSEY           N/A     35  34  96 CALM        N/A
BUTTE            N/A     40  38  93 W3          N/A
CHAMBERS         N/A     40  39  95 CALM        N/A
EWING            N/A     42  40  93 NW5         N/A
$$

...OBSERVATIONS IN SOUTHWEST NEBRASKA AND FAR NORTHEAST COLORADO...

CITY           SKY/WX    TMP DP  RH WIND       PRES   REMARKS
WRAY           FAIR      32  32 100 CALM      29.91F
IMPERIAL       CLEAR     37  33  85 W3        29.91F
OGALLALA       CLOUDY    33  32  96 W3        29.91F
NORTH PLATTE   CLOUDY    32  31  96 N3        29.88F
MCCOOK         CLEAR     35  35 100 W6        29.89F WCI  30
LEXINGTON      CLEAR     37  35  92 W7        29.88F WCI  31
STAPLETON        N/A     33  30  90 CALM        N/A
GOTHENBURG       N/A     37  33  87 W5          N/A  WCI  33
CALLAWAY         N/A     38  35  89 N7          N/A  WCI  33
$$

...OBSERVATIONS IN CENTRAL LINCOLN COUNTY AREA...

CITY           SKY/WX    TMP DP  RH WIND       PRES   REMARKS
N.P. AIRPORT   CLOUDY    32  31  96 N3        29.88F
N.P. DOWNTOWN    N/A     36  34  92 CALM        N/A
N.P. SOUTHEAST   N/A     36  33  90 CALM        N/A
N.P. HILLCREST   N/A     36  34  92 NW3         N/A
$$

...SOME OBSERVATIONS FROM AROUND THE REGION...

CITY           SKY/WX    TMP DP  RH WIND       PRES   REMARKS
DENVER         PTCLDY    37  33  85 S12       29.89F WCI  29
LIMON          CLEAR     28  27  96 NW6       29.93F WCI  22
ASPEN          CLOUDY    34  27  75 S8        30.11F WCI  27
LARAMIE        CLOUDY    36  30  79 SW12      29.94F WCI  28
CASPER         CLEAR     50  36  58 SW14      29.80F
CHEYENNE       CLOUDY    41  32  70 SW14      29.88F
SCOTTSBLUFF    CLEAR     38  34  85 E9        29.85F WCI  31
GRAND ISLAND   CLEAR     43  42  97 NW9       29.85F
OMAHA          MOCLDY    50  44  80 NW13      29.76F
SIOUX FALLS    MOCLDY    45  45 100 N8        29.82S
PIERRE         CLEAR     36  33  89 SW6       29.84F WCI  31
RAPID CITY     CLEAR     37  33  85 SE6       29.81F WCI  32
BISMARCK       CLEAR     35  33  92 E3        29.82F
KANSAS CITY    MOCLDY    49  47  93 NW8       29.71F
HILL CITY      CLEAR     40  38  93 NW9       29.89F WCI  34
WICHITA        PTCLDY    47  43  86 NW10      29.82F
DODGE CITY     CLEAR     41  36  82 NW10      29.91F
OKLAHOMA CITY  CLEAR     48  44  86 NW9       29.85S
DALLAS         PTCLDY    59  48  67 NW13      29.82F
AMARILLO       CLEAR     45  36  70 W9        29.96F
$$




USA.gov is the U.S. government's official web portal to all federal, state and local government web resources and services.